VZLUSAT-1 (42790 NORAD) Tracking and Keplerian Element Data

This shows tracking and keplerian element data for the satellite.

Feedback or suggestion? Click here.




ElementValue
Catalog42790
NameVZLUSAT-1
Epoch Orbit32705
Epoch Day126.09264186
Epoch Year2023
RAAN173.3028
Inclination97.1406
Eccentricity0.0007258
Argument of Perigee200.9914
Mean Anonmoly159.1055
Mean Motion15.77088479
Decay Rate0.00292578
L11 42790U 17036AB 23126.09264186 .00292578 00000+0 17438-2 0 9996
L22 42790 97.1406 173.3028 0007258 200.9914 159.1055 15.77088479327051



Live tracking and technical data element details for VZLUSAT-1 (NORAD 42790). VZLUSAT-1 can be tracked NOW for your location showing map with azimuth and elevation plus other details from your city location.







IsCatalogInMostPopularTable: catalog: 42790, numindb: 517
Update: records affected: 1



GetName: 42790 VZLUSAT-1

Hit Count: updated at: Thu, 23 Jan 2025 17:17:39 GMT